Wheeling, WV

6:52 AM EDT on May 28, 2018 (GMT -0400)
Wheeling-Ohio County

Weather History for KHLG - May, 2013

Change the Weather History Date:

Saturday, May 25, 2013

  Actual Average Record
Temperature  
Mean Temperature 47 °F 62 °F  
Max Temperature 62 °F 72 °F 91 °F (1939)
Min Temperature 31 °F 52 °F 30 °F (1935)
Degree Days  
Heating Degree Days 18 4  
Month to date heating degree days 133 169  
Since 1 July heating degree days 5419 5527  
Cooling Degree Days 0    
Month to date cooling degree days 49  
Year to date cooling degree days 69  
Moisture  
Dew Point 31 °F    
Average Humidity 65    
Maximum Humidity 100    
Minimum Humidity 29    
Precipitation  
Precipitation 0.00 in 0.15 in 1.75 in (1918)
Month to date precipitation 2.66 3.36  
Year to date precipitation 14.33  
Sea Level Pressure  
Sea Level Pressure 30.32 in    
Wind  
Wind Speed 7 mph (NW)    
Max Wind Speed 20 mph    
Max Gust Speed 26 mph    
Visibility 6 miles    
Events Fog    
T = Trace of Precipitation, MM = Missing Value Source: NWS Daily Summary

Daily Weather History Graph

Daily Weather History Graph

Search for Another Location

Airport or City:

Astronomy

May. 25, 2013 Rise Set
Actual Time 5:58 AM EDT 8:40 PM EDT
Civil Twilight 5:27 AM EDT 9:12 PM EDT
Nautical Twilight 4:47 AM EDT 9:52 PM EDT
Astronomical Twilight 4:02 AM EDT 10:37 PM EDT
Moon 9:27 PM EDT (5/25) 6:24 AM EDT (5/25)
Length of Visible Light 15h 45m
Length of Day
14h 41m
Full, 100% of the Moon is Illuminated
May 25
Full
May 31
Last Quarter
Jun 8
New
Jun 16
First Quarter
Jun 23
Full

Hourly Weather History & Observations

Time (EDT) Temp. Windchill Dew Point Humidity Pressure Visibility Wind Dir Wind Speed Gust Speed Precip Events Conditions
12:53 AM 37.0 °F - 30.9 °F 79% 30.32 in 10.0 mi Calm Calm - N/A   Clear
1:53 AM 35.1 °F 32.2 °F 32.0 °F 89% 30.33 in 10.0 mi WNW 3.5 mph - N/A   Clear
2:53 AM 34.0 °F - 30.9 °F 89% 30.32 in 10.0 mi Calm Calm - N/A   Clear
3:53 AM 33.1 °F - 30.9 °F 92% 30.32 in 8.0 mi Calm Calm - N/A   Clear
4:53 AM 32.0 °F - 30.0 °F 92% 30.33 in 6.0 mi Calm Calm - N/A   Clear
5:25 AM 30.2 °F - 30.2 °F 100% 30.30 in 1.8 mi Calm Calm - N/A   Clear
5:32 AM 30.2 °F - 30.2 °F 100% 30.30 in 0.5 mi Calm Calm - N/A Fog Light Freezing Fog
5:39 AM 32.0 °F - 30.2 °F 93% 30.31 in 1.0 mi Calm Calm - N/A   Clear
5:47 AM 30.2 °F - 30.2 °F 100% 30.32 in 0.5 mi Calm Calm - N/A Fog Light Freezing Fog
5:53 AM 30.9 °F - 28.9 °F 92% 30.36 in 0.2 mi Calm Calm - N/A Fog Light Freezing Fog
6:09 AM 32.0 °F - 30.2 °F 93% 30.32 in 0.8 mi Calm Calm - N/A   Mist
6:20 AM 30.2 °F - 30.2 °F 100% 30.32 in 0.2 mi Calm Calm - N/A Fog Light Freezing Fog
6:25 AM 30.2 °F - 30.2 °F 100% 30.32 in 0.2 mi Calm Calm - N/A Fog Light Freezing Fog
6:32 AM 30.2 °F - 30.2 °F 100% 30.32 in 1.2 mi Calm Calm - N/A   Clear
6:34 AM 32.0 °F - 30.2 °F 93% 30.32 in 3.0 mi Calm Calm - N/A   Clear
6:48 AM 30.2 °F 26.7 °F 30.2 °F 100% 30.32 in 1.8 mi West 3.5 mph - N/A   Clear
6:53 AM 30.9 °F 27.5 °F 30.0 °F 96% 30.36 in 1.5 mi West 3.5 mph - N/A   Clear
6:57 AM 30.2 °F 26.7 °F 30.2 °F 100% 30.33 in 0.5 mi West 3.5 mph - N/A Fog Light Freezing Fog
7:20 AM 33.8 °F 30.8 °F 32.0 °F 93% 30.32 in 1.0 mi West 3.5 mph - N/A   Clear
7:25 AM 33.8 °F 30.8 °F 32.0 °F 93% 30.32 in 3.0 mi West 3.5 mph - N/A   Partly Cloudy
7:53 AM 35.1 °F 32.2 °F 33.1 °F 92% 30.35 in 5.0 mi West 3.5 mph - N/A   Clear
8:53 AM 41.0 °F 39.0 °F 35.1 °F 79% 30.35 in 10.0 mi NW 3.5 mph - N/A   Clear
9:53 AM 45.0 °F 42.6 °F 36.0 °F 71% 30.37 in 10.0 mi Variable 4.6 mph - N/A   Partly Cloudy
10:53 AM 48.9 °F - 34.0 °F 56% 30.38 in 10.0 mi North 8.1 mph - N/A   Scattered Clouds
11:53 AM 52.0 °F - 35.1 °F 53% 30.35 in 10.0 mi NW 11.5 mph 19.6 mph N/A   Clear
12:53 PM 55.0 °F - 34.0 °F 45% 30.33 in 10.0 mi NW 10.4 mph 17.3 mph N/A   Scattered Clouds
1:53 PM 57.0 °F - 34.0 °F 42% 30.31 in 10.0 mi North 9.2 mph 21.9 mph N/A   Mostly Cloudy
2:53 PM 57.9 °F - 34.0 °F 41% 30.30 in 10.0 mi WNW 12.7 mph 21.9 mph N/A   Partly Cloudy
3:53 PM 61.0 °F - 34.0 °F 36% 30.29 in 10.0 mi NNW 16.1 mph 24.2 mph N/A   Partly Cloudy
4:53 PM 61.0 °F - 32.0 °F 34% 30.27 in 10.0 mi NNW 12.7 mph 20.7 mph N/A   Partly Cloudy
5:53 PM 60.1 °F - 28.9 °F 31% 30.27 in 10.0 mi WNW 10.4 mph 21.9 mph N/A   Clear
6:53 PM 57.9 °F - 28.0 °F 32% 30.27 in 10.0 mi NNW 11.5 mph 21.9 mph N/A   Clear
7:53 PM 55.0 °F - 28.9 °F 37% 30.27 in 10.0 mi NNW 9.2 mph 19.6 mph N/A   Clear
8:53 PM 53.1 °F - 30.9 °F 43% 30.26 in 10.0 mi NNW 8.1 mph - N/A   Clear
9:53 PM 51.1 °F - 30.9 °F 46% 30.28 in 10.0 mi NW 9.2 mph - N/A   Clear
10:53 PM 48.9 °F - 32.0 °F 52% 30.28 in 10.0 mi NNW 8.1 mph - N/A   Clear
11:53 PM 48.0 °F - 30.9 °F 52% 30.28 in 10.0 mi NW 6.9 mph - N/A   Clear